User: anonymous   Login
Location: Kalberh�ni
(46.4610°N, 7.2453°E)
Time: 09:28:15
(UTC+00:00)
Language:

Tiangong - Orbit

View from above orbital plane
View from above orbital plane
View from above satellite
View from above satellite

Ground track
Ground track

The orbit data is extracted from the following two-line orbital elements,

1 48274U 21035A   21300.77559978  .00012482  00000-0  14888-3 0  9998
2 48274  41.4704 194.5476 0006823 273.2847 192.0175 15.60847835 28434
Epoch (UTC): 27 October 2021 18:36:51
Eccentricity: 0.0006823
inclination: 41.4704°
perigee height: 380 km
apogee height: 390 km
right ascension of ascending node: 194.5476°
argument of perigee: 273.2847°
revolutions per day: 15.60847835
mean anomaly at epoch: 192.0175°
orbit number at epoch: 2843

The dashed part of the orbit path shows where the satellite is in the earth's shadow,  

DLR